This is the latest recevied weather packets stored in our database for station/object KC3QLX. If no packets are shown the sender has not sent any weather packets the latest 10 day(s).
| Time | Temp. | Humidity | Pressure | Rain* | Wind** | Luminosity | Snow |
|---|---|---|---|---|---|---|---|
| 1777705658 | 7.78° C | 99% | 1011.4 hPa | 0 mm | - | 0 W/m² | - |
| 1777705355 | 7.78° C | 99% | 1011.7 hPa | 0 mm | - | 0 W/m² | - |
| 1777705053 | 7.78° C | 99% | 1011.2 hPa | 0 mm | - | 0 W/m² | - |
| 1777704751 | 7.78° C | 99% | 1011.4 hPa | 0 mm | - | 0 W/m² | - |
| 1777704449 | 7.78° C | 99% | 1011.3 hPa | 0 mm | - | 0 W/m² | - |
| 1777704147 | 7.78° C | 99% | 1011.5 hPa | 0 mm | - | 0 W/m² | - |
| 1777703844 | 7.78° C | 99% | 1011.5 hPa | 0 mm | - | 0 W/m² | - |
| 1777703542 | 7.78° C | 99% | 1011.3 hPa | 0 mm | - | 0 W/m² | - |
| 1777703238 | 7.78° C | 99% | 1011.6 hPa | 0 mm | - | 0 W/m² | - |
| 1777702936 | 7.78° C | 99% | 1011.5 hPa | 1.27 mm | - | 0 W/m² | - |
| 1777702635 | 7.78° C | 99% | 1011.5 hPa | 3.05 mm | - | 0 W/m² | - |
| 1777702332 | 7.78° C | 99% | 1011.6 hPa | 3.05 mm | - | 0 W/m² | - |
| 1777702026 | 8.33° C | 99% | 1011.8 hPa | 3.05 mm | - | 0 W/m² | - |
| 1777701723 | 8.33° C | 99% | 1012.1 hPa | 4.83 mm | - | 0 W/m² | - |
| 1777701421 | 8.33° C | 99% | 1012.3 hPa | 4.32 mm | - | 0 W/m² | - |
| 1777701119 | 8.33° C | 99% | 1012.2 hPa | 4.83 mm | - | 0 W/m² | - |
| 1777700818 | 8.33° C | 99% | 1012.3 hPa | 3.05 mm | - | 0 W/m² | - |
| 1777700515 | 8.33° C | 99% | 1012.3 hPa | 1.27 mm | - | 0 W/m² | - |
| 1777700212 | 8.33° C | 99% | 1012.4 hPa | 1.78 mm | - | 0 W/m² | - |
| 1777699909 | 8.33° C | 99% | 1012.2 hPa | 1.78 mm | - | 0 W/m² | - |
| 1777699607 | 8.33° C | 99% | 1012.2 hPa | 0 mm | - | 0 W/m² | - |
| 1777699305 | 8.33° C | 99% | 1012.2 hPa | 1.27 mm | - | 0 W/m² | - |
| 1777699003 | 8.33° C | 99% | 1012.3 hPa | 1.27 mm | - | 0 W/m² | - |
| 1777698701 | 8.33° C | 99% | 1012.2 hPa | 0 mm | - | 0 W/m² | - |
| 1777698397 | 8.33° C | 99% | 1012.5 hPa | 0 mm | - | 0 W/m² | - |
* Rain latest hour (hover to see other rain measurements)
** Current wind speed in m/s (hover to see current wind gust speed)